Time,TemperatureF,DewpointF,PressureIn,WindDirection,WindDirectionDegrees,WindSpeedMPH,WindSpeedGustMPH,Humidity,HourlyPrecipIn,Conditions,Clouds,dailyrainin,SoftwareType,DateUTC
2013-08-27 00:01:00,76.2,74.7,30.05,WNW,287,0.0,0.0,95,0.00,,BKN095,0.00,VWS V14.01,2013-08-27 04:01:00,
2013-08-27 00:02:00,76.2,74.7,30.05,WNW,287,0.0,0.0,95,0.00,,BKN095,0.00,VWS V14.01,2013-08-27 04:02:00,
2013-08-27 00:03:00,76.2,74.7,30.05,WNW,287,0.0,0.0,95,0.00,,BKN095,0.00,VWS V14.01,2013-08-27 04:03:00,
2013-08-27 00:08:00,76.1,74.6,30.05,WNW,287,0.0,0.0,95,0.00,,BKN095,0.00,VWS V14.01,2013-08-27 04:08:00,
2013-08-27 00:13:00,76.0,74.5,30.06,WNW,287,0.0,0.0,95,0.00,,BKN095,0.00,VWS V14.01,2013-08-27 04:13:00,
2013-08-27 00:18:00,75.8,74.3,30.05,WNW,287,0.0,0.0,95,0.00,,BKN095,0.00,VWS V14.01,2013-08-27 04:18:00,
2013-08-27 00:23:00,75.7,74.2,30.06,WNW,287,0.0,0.0,95,0.00,,BKN095,0.00,VWS V14.01,2013-08-27 04:23:00,
2013-08-27 00:28:00,75.6,74.4,30.05,WNW,287,0.0,0.0,96,0.00,,BKN095,0.00,VWS V14.01,2013-08-27 04:28:00,
2013-08-27 00:34:00,75.5,74.3,30.05,WNW,287,0.0,0.0,96,0.00,,BKN095,0.00,VWS V14.01,2013-08-27 04:34:00,
2013-08-27 00:39:00,75.5,74.3,30.05,WNW,287,0.0,0.0,96,0.00,,BKN095,0.00,VWS V14.01,2013-08-27 04:39:00,
2013-08-27 00:44:00,75.5,74.3,30.05,WNW,287,0.0,0.0,96,0.00,,BKN095,0.00,VWS V14.01,2013-08-27 04:44:00,
2013-08-27 00:49:00,75.5,74.3,30.05,WNW,292,0.0,0.0,96,0.01,,BKN095,0.01,VWS V14.01,2013-08-27 04:49:00,
2013-08-27 00:54:00,75.5,74.3,30.05,SSW,203,0.0,0.0,96,0.20,,BKN095,0.20,VWS V14.01,2013-08-27 04:54:00,
2013-08-27 00:59:00,74.9,73.4,30.04,SSW,205,0.0,1.0,95,0.22,,BKN095,0.22,VWS V14.01,2013-08-27 04:59:00,
2013-08-27 01:04:00,74.5,73.0,30.04,SW,222,0.0,0.0,95,0.22,,CLR,0.22,VWS V14.01,2013-08-27 05:04:00,
2013-08-27 01:09:00,74.2,72.7,30.04,SW,222,0.0,0.0,95,0.22,,CLR,0.22,VWS V14.01,2013-08-27 05:09:00,
2013-08-27 01:14:00,73.9,72.4,30.04,SW,222,0.0,0.0,95,0.22,,CLR,0.22,VWS V14.01,2013-08-27 05:14:00,
2013-08-27 01:19:00,73.8,72.6,30.04,SW,223,0.0,0.0,96,0.22,,CLR,0.22,VWS V14.01,2013-08-27 05:19:00,
2013-08-27 01:24:00,73.7,72.5,30.04,SW,222,0.0,0.0,96,0.22,,CLR,0.22,VWS V14.01,2013-08-27 05:24:00,
2013-08-27 01:29:00,73.6,72.4,30.04,SW,222,0.0,0.0,96,0.22,,CLR,0.22,VWS V14.01,2013-08-27 05:29:00,
2013-08-27 01:34:00,73.5,72.3,30.03,SW,222,0.0,0.0,96,0.22,,CLR,0.22,VWS V14.01,2013-08-27 05:34:00,
2013-08-27 01:39:00,73.4,72.2,30.03,SW,223,0.0,0.0,96,0.22,,CLR,0.22,VWS V14.01,2013-08-27 05:39:00,
2013-08-27 01:44:00,73.4,72.5,30.03,SW,222,0.0,0.0,97,0.22,,CLR,0.22,VWS V14.01,2013-08-27 05:44:00,
2013-08-27 01:50:00,73.5,72.6,30.03,SW,223,0.0,0.0,97,0.22,,CLR,0.22,VWS V14.01,2013-08-27 05:50:00,
2013-08-27 01:55:00,73.5,72.6,30.03,SW,222,0.0,0.0,97,0.22,,CLR,0.22,VWS V14.01,2013-08-27 05:55:00,
2013-08-27 02:00:00,73.5,72.6,30.03,SW,223,0.0,0.0,97,0.22,,CLR,0.22,VWS V14.01,2013-08-27 06:00:00,
2013-08-27 02:05:00,73.3,72.4,30.03,SW,223,0.0,0.0,97,0.00,,CLR,0.22,VWS V14.01,2013-08-27 06:05:00,
2013-08-27 02:10:00,73.2,72.3,30.02,SW,222,0.0,0.0,97,0.00,,CLR,0.22,VWS V14.01,2013-08-27 06:10:00,
2013-08-27 02:15:00,73.1,72.2,30.02,SW,222,0.0,0.0,97,0.00,,CLR,0.22,VWS V14.01,2013-08-27 06:15:00,
2013-08-27 02:20:00,73.0,72.1,30.02,SW,222,0.0,0.0,97,0.00,,CLR,0.22,VWS V14.01,2013-08-27 06:20:00,
2013-08-27 02:25:00,72.9,72.0,30.02,SW,222,0.0,0.0,97,0.00,,CLR,0.22,VWS V14.01,2013-08-27 06:25:00,
2013-08-27 02:30:00,72.9,72.0,30.02,SW,223,0.0,0.0,97,0.00,,CLR,0.22,VWS V14.01,2013-08-27 06:30:00,
2013-08-27 02:35:00,72.9,72.0,30.02,SW,222,0.0,0.0,97,0.00,,CLR,0.22,VWS V14.01,2013-08-27 06:35:00,
2013-08-27 02:40:00,72.9,72.0,30.02,SW,222,0.0,0.0,97,0.00,,CLR,0.22,VWS V14.01,2013-08-27 06:40:00,
2013-08-27 02:45:00,72.9,72.0,30.02,SW,222,0.0,0.0,97,0.00,,CLR,0.22,VWS V14.01,2013-08-27 06:45:00,
2013-08-27 02:50:00,72.9,72.0,30.02,SW,222,0.0,0.0,97,0.00,,CLR,0.22,VWS V14.01,2013-08-27 06:50:00,
2013-08-27 02:55:00,72.9,72.0,30.01,SW,222,0.0,0.0,97,0.00,,CLR,0.22,VWS V14.01,2013-08-27 06:55:00,
2013-08-27 03:00:00,72.8,71.9,30.01,SW,222,0.0,0.0,97,0.00,,CLR,0.22,VWS V14.01,2013-08-27 07:00:00,
2013-08-27 03:05:00,72.7,71.8,30.01,SW,223,0.0,0.0,97,0.00,,CLR,0.22,VWS V14.01,2013-08-27 07:05:00,
2013-08-27 03:11:00,72.7,71.8,30.01,SW,222,0.0,0.0,97,0.00,,CLR,0.22,VWS V14.01,2013-08-27 07:11:00,
2013-08-27 03:16:00,72.6,71.7,30.01,SW,223,0.0,0.0,97,0.00,,CLR,0.22,VWS V14.01,2013-08-27 07:16:00,
2013-08-27 03:21:00,72.6,71.7,30.01,SW,222,0.0,0.0,97,0.00,,CLR,0.22,VWS V14.01,2013-08-27 07:21:00,
2013-08-27 03:26:00,72.7,71.8,30.01,SW,222,0.0,0.0,97,0.00,,CLR,0.22,VWS V14.01,2013-08-27 07:26:00,
2013-08-27 03:31:00,72.8,72.2,30.01,SW,222,0.0,0.0,98,0.00,,CLR,0.22,VWS V14.01,2013-08-27 07:31:00,
2013-08-27 03:36:00,72.8,72.2,30.01,SW,222,0.0,0.0,98,0.00,,CLR,0.22,VWS V14.01,2013-08-27 07:36:00,
2013-08-27 03:41:00,72.8,72.2,30.00,SW,222,0.0,0.0,98,0.00,,CLR,0.22,VWS V14.01,2013-08-27 07:41:00,
2013-08-27 03:46:00,72.9,72.3,30.00,SW,222,0.0,0.0,98,0.00,,CLR,0.22,VWS V14.01,2013-08-27 07:46:00,
2013-08-27 03:51:00,72.9,72.3,30.00,SW,223,0.0,0.0,98,0.00,,CLR,0.22,VWS V14.01,2013-08-27 07:51:00,
2013-08-27 03:56:00,72.9,72.3,30.01,SW,222,0.0,0.0,98,0.00,,CLR,0.22,VWS V14.01,2013-08-27 07:56:00,
2013-08-27 04:01:00,72.8,72.2,30.00,SW,222,0.0,0.0,98,0.00,,CLR,0.22,VWS V14.01,2013-08-27 08:01:00,
2013-08-27 04:06:00,72.8,72.2,30.01,SW,222,0.0,0.0,98,0.00,,CLR,0.22,VWS V14.01,2013-08-27 08:06:00,
2013-08-27 04:11:00,72.7,72.1,30.01,SW,222,0.0,0.0,98,0.00,,CLR,0.22,VWS V14.01,2013-08-27 08:11:00,
2013-08-27 04:16:00,72.7,72.1,30.00,SW,222,0.0,0.0,98,0.00,,CLR,0.22,VWS V14.01,2013-08-27 08:16:00,
2013-08-27 04:21:00,72.6,72.0,30.00,SW,222,0.0,0.0,98,0.00,,CLR,0.22,VWS V14.01,2013-08-27 08:21:00,
2013-08-27 04:26:00,72.6,72.0,30.00,SW,222,0.0,0.0,98,0.00,,CLR,0.22,VWS V14.01,2013-08-27 08:26:00,
2013-08-27 04:31:00,72.6,72.0,30.00,SW,223,0.0,0.0,98,0.00,,CLR,0.22,VWS V14.01,2013-08-27 08:31:00,
2013-08-27 04:36:00,72.7,72.1,30.00,SW,222,0.0,0.0,98,0.00,,CLR,0.22,VWS V14.01,2013-08-27 08:36:00,
2013-08-27 04:41:00,72.7,72.1,30.00,SW,222,0.0,0.0,98,0.00,,CLR,0.22,VWS V14.01,2013-08-27 08:41:00,
2013-08-27 04:46:00,72.7,72.1,30.00,SW,222,0.0,0.0,98,0.00,,CLR,0.22,VWS V14.01,2013-08-27 08:46:00,
2013-08-27 04:52:00,72.8,72.2,30.00,SW,222,0.0,0.0,98,0.00,,CLR,0.22,VWS V14.01,2013-08-27 08:52:00,
2013-08-27 04:57:00,72.8,72.2,30.00,SW,222,0.0,0.0,98,0.00,,CLR,0.22,VWS V14.01,2013-08-27 08:57:00,
2013-08-27 05:02:00,72.8,72.2,30.00,SW,222,0.0,0.0,98,0.00,,FEW110,0.22,VWS V14.01,2013-08-27 09:02:00,
2013-08-27 05:07:00,72.7,72.1,30.00,SW,222,0.0,0.0,98,0.00,,FEW110,0.22,VWS V14.01,2013-08-27 09:07:00,
2013-08-27 05:12:00,72.7,72.1,30.01,SW,222,0.0,0.0,98,0.00,,FEW110,0.22,VWS V14.01,2013-08-27 09:12:00,
2013-08-27 05:17:00,72.7,72.1,30.01,SW,222,0.0,0.0,98,0.00,,FEW110,0.22,VWS V14.01,2013-08-27 09:17:00,
2013-08-27 05:22:00,72.7,72.1,30.01,SW,222,0.0,0.0,98,0.00,,FEW110,0.22,VWS V14.01,2013-08-27 09:22:00,
2013-08-27 05:27:00,72.8,72.2,30.01,SW,222,0.0,0.0,98,0.00,,FEW110,0.22,VWS V14.01,2013-08-27 09:27:00,
2013-08-27 05:32:00,72.7,72.1,30.01,SW,223,0.0,0.0,98,0.00,,FEW110,0.22,VWS V14.01,2013-08-27 09:32:00,
2013-08-27 05:37:00,72.7,72.1,30.01,SW,222,0.0,0.0,98,0.00,,FEW110,0.22,VWS V14.01,2013-08-27 09:37:00,
2013-08-27 05:42:00,72.7,72.1,30.01,SW,222,0.0,0.0,98,0.00,,FEW110,0.22,VWS V14.01,2013-08-27 09:42:00,
2013-08-27 05:47:00,72.6,72.0,30.01,SW,223,0.0,0.0,98,0.00,,FEW110,0.22,VWS V14.01,2013-08-27 09:47:00,
2013-08-27 05:52:00,72.6,72.0,30.01,SW,222,0.0,0.0,98,0.00,,FEW110,0.22,VWS V14.01,2013-08-27 09:52:00,
2013-08-27 05:57:00,72.5,71.9,30.01,SW,222,0.0,0.0,98,0.00,,FEW110,0.22,VWS V14.01,2013-08-27 09:57:00,
2013-08-27 06:02:00,72.4,71.8,30.01,SW,222,0.0,0.0,98,0.00,,CLR,0.22,VWS V14.01,2013-08-27 10:02:00,
2013-08-27 06:07:00,72.4,71.8,30.01,SW,222,0.0,0.0,98,0.00,,CLR,0.22,VWS V14.01,2013-08-27 10:07:00,
2013-08-27 06:12:00,72.3,71.7,30.01,SW,222,0.0,0.0,98,0.00,,CLR,0.22,VWS V14.01,2013-08-27 10:12:00,
2013-08-27 06:17:00,72.3,71.7,30.01,SW,223,0.0,0.0,98,0.00,,CLR,0.22,VWS V14.01,2013-08-27 10:17:00,
2013-08-27 06:22:00,72.2,71.6,30.01,SW,223,0.0,0.0,98,0.00,,CLR,0.22,VWS V14.01,2013-08-27 10:22:00,
2013-08-27 06:27:00,72.2,71.6,30.01,SW,222,0.0,0.0,98,0.00,,CLR,0.22,VWS V14.01,2013-08-27 10:27:00,
2013-08-27 06:32:00,72.2,71.6,30.01,SW,222,0.0,0.0,98,0.00,,CLR,0.22,VWS V14.01,2013-08-27 10:32:00,
2013-08-27 06:38:00,72.2,71.6,30.02,SW,222,0.0,0.0,98,0.00,,CLR,0.22,VWS V14.01,2013-08-27 10:38:00,
2013-08-27 06:43:00,72.1,71.5,30.02,SW,223,0.0,0.0,98,0.00,,CLR,0.22,VWS V14.01,2013-08-27 10:43:00,
2013-08-27 06:48:00,72.2,71.6,30.02,SW,223,0.0,0.0,98,0.00,,CLR,0.22,VWS V14.01,2013-08-27 10:48:00,
2013-08-27 06:53:00,72.2,71.6,30.02,SW,222,0.0,0.0,98,0.00,,CLR,0.22,VWS V14.01,2013-08-27 10:53:00,
2013-08-27 06:58:00,72.3,71.7,30.02,SW,222,0.0,0.0,98,0.00,,CLR,0.22,VWS V14.01,2013-08-27 10:58:00,
2013-08-27 07:03:00,72.3,71.7,30.02,SW,222,0.0,0.0,98,0.00,,FEW100,0.22,VWS V14.01,2013-08-27 11:03:00,
2013-08-27 07:08:00,72.4,71.8,30.02,SW,222,0.0,0.0,98,0.00,,FEW100,0.22,VWS V14.01,2013-08-27 11:08:00,
2013-08-27 07:13:00,72.4,71.8,30.02,SW,223,0.0,0.0,98,0.00,,FEW100,0.22,VWS V14.01,2013-08-27 11:13:00,
2013-08-27 07:18:00,72.6,72.0,30.02,SW,222,0.0,0.0,98,0.00,,FEW100,0.22,VWS V14.01,2013-08-27 11:18:00,
2013-08-27 07:23:00,72.8,72.2,30.02,SW,222,0.0,0.0,98,0.00,,FEW100,0.22,VWS V14.01,2013-08-27 11:23:00,
2013-08-27 07:28:00,72.9,72.3,30.02,SW,222,0.0,0.0,98,0.00,,FEW100,0.22,VWS V14.01,2013-08-27 11:28:00,
2013-08-27 07:33:00,73.1,72.5,30.02,SW,222,0.0,0.0,98,0.00,,FEW100,0.22,VWS V14.01,2013-08-27 11:33:00,
2013-08-27 07:38:00,73.3,72.7,30.02,SW,222,0.0,0.0,98,0.00,,FEW100,0.22,VWS V14.01,2013-08-27 11:38:00,
2013-08-27 07:43:00,73.4,72.8,30.02,SW,222,0.0,0.0,98,0.00,,FEW100,0.22,VWS V14.01,2013-08-27 11:43:00,
2013-08-27 07:48:00,73.6,73.0,30.02,SW,222,0.0,0.0,98,0.00,,FEW100,0.22,VWS V14.01,2013-08-27 11:48:00,
2013-08-27 07:53:00,73.7,73.1,30.03,SW,222,0.0,0.0,98,0.00,,FEW100,0.22,VWS V14.01,2013-08-27 11:53:00,
2013-08-27 07:58:00,73.7,73.1,30.03,SW,222,0.0,0.0,98,0.00,,FEW100,0.22,VWS V14.01,2013-08-27 11:58:00,
2013-08-27 08:03:00,73.8,73.2,30.02,SW,223,0.0,0.0,98,0.00,,CLR,0.22,VWS V14.01,2013-08-27 12:03:00,
2013-08-27 08:08:00,73.8,73.2,30.03,SW,222,0.0,0.0,98,0.00,,CLR,0.22,VWS V14.01,2013-08-27 12:08:00,
2013-08-27 08:13:00,73.8,73.2,30.03,SW,223,0.0,0.0,98,0.00,,CLR,0.22,VWS V14.01,2013-08-27 12:13:00,
2013-08-27 08:18:00,74.0,73.4,30.03,SW,222,0.0,0.0,98,0.00,,CLR,0.22,VWS V14.01,2013-08-27 12:18:00,
2013-08-27 08:24:00,74.1,73.5,30.03,SW,222,0.0,0.0,98,0.00,,CLR,0.22,VWS V14.01,2013-08-27 12:24:00,
2013-08-27 08:29:00,74.3,74.0,30.03,SW,222,0.0,0.0,99,0.00,,CLR,0.22,VWS V14.01,2013-08-27 12:29:00,
2013-08-27 08:34:00,74.4,74.1,30.03,SW,222,0.0,0.0,99,0.00,,CLR,0.22,VWS V14.01,2013-08-27 12:34:00,
2013-08-27 08:39:00,74.6,74.3,30.03,SW,222,0.0,0.0,99,0.00,,CLR,0.22,VWS V14.01,2013-08-27 12:39:00,
2013-08-27 08:44:00,74.6,74.0,30.03,SW,221,0.0,0.0,98,0.00,,CLR,0.22,VWS V14.01,2013-08-27 12:44:00,
2013-08-27 08:49:00,74.8,74.5,30.03,SW,222,0.0,0.0,99,0.00,,CLR,0.22,VWS V14.01,2013-08-27 12:49:00,
2013-08-27 08:54:00,75.1,74.8,30.03,SW,222,0.0,1.0,99,0.00,,CLR,0.22,VWS V14.01,2013-08-27 12:54:00,
2013-08-27 08:59:00,75.1,74.5,30.03,SW,222,0.0,1.0,98,0.00,,CLR,0.22,VWS V14.01,2013-08-27 12:59:00,
2013-08-27 09:04:00,75.3,74.7,30.03,SW,224,0.0,0.0,98,0.00,,CLR,0.22,VWS V14.01,2013-08-27 13:04:00,
2013-08-27 09:09:00,75.4,74.8,30.03,SW,225,0.0,1.0,98,0.00,,CLR,0.22,VWS V14.01,2013-08-27 13:09:00,
2013-08-27 09:14:00,75.6,75.0,30.03,WSW,250,0.0,1.0,98,0.00,,CLR,0.22,VWS V14.01,2013-08-27 13:14:00,
2013-08-27 09:19:00,76.1,75.5,30.03,WSW,255,0.0,1.0,98,0.00,,CLR,0.22,VWS V14.01,2013-08-27 13:19:00,
2013-08-27 09:24:00,76.5,75.6,30.04,WSW,253,0.0,1.0,97,0.00,,CLR,0.22,VWS V14.01,2013-08-27 13:24:00,
2013-08-27 09:29:00,76.9,75.7,30.04,NNW,329,0.0,2.0,96,0.00,,CLR,0.22,VWS V14.01,2013-08-27 13:29:00,
2013-08-27 09:34:00,77.5,75.6,30.04,NW,319,0.0,1.0,94,0.00,,CLR,0.22,VWS V14.01,2013-08-27 13:34:00,
2013-08-27 09:39:00,78.0,75.8,30.04,NW,314,0.0,1.0,93,0.00,,CLR,0.22,VWS V14.01,2013-08-27 13:39:00,
2013-08-27 09:44:00,78.5,75.7,30.04,West,281,0.0,1.0,91,0.00,,CLR,0.22,VWS V14.01,2013-08-27 13:44:00,
2013-08-27 09:49:00,79.0,75.8,30.04,WNW,291,0.0,1.0,90,0.00,,CLR,0.22,VWS V14.01,2013-08-27 13:49:00,
2013-08-27 09:54:00,79.5,76.0,30.04,SW,232,0.0,1.0,89,0.00,,CLR,0.22,VWS V14.01,2013-08-27 13:54:00,
2013-08-27 09:59:00,79.9,75.3,30.05,West,264,0.0,3.0,86,0.00,,CLR,0.22,VWS V14.01,2013-08-27 13:59:00,
2013-08-27 10:05:00,80.4,75.5,30.05,North,358,0.0,1.0,85,0.00,,FEW028,0.22,VWS V14.01,2013-08-27 14:05:00,
2013-08-27 10:10:00,80.8,75.2,30.05,North,352,0.0,2.0,83,0.00,,FEW028,0.22,VWS V14.01,2013-08-27 14:10:00,
2013-08-27 10:15:00,81.1,75.1,30.05,NW,316,1.0,2.0,82,0.00,,FEW028,0.22,VWS V14.01,2013-08-27 14:15:00,
2013-08-27 10:20:00,81.5,75.1,30.05,SSW,204,0.0,2.0,81,0.00,,FEW028,0.22,VWS V14.01,2013-08-27 14:20:00,
2013-08-27 10:25:00,82.1,75.7,30.05,NE,54,0.0,2.0,81,0.00,,FEW028,0.22,VWS V14.01,2013-08-27 14:25:00,
2013-08-27 10:30:00,82.5,74.9,30.04,NW,308,0.0,2.0,78,0.00,,FEW028,0.22,VWS V14.01,2013-08-27 14:30:00,
2013-08-27 10:35:00,82.7,74.8,30.04,SSW,200,0.0,4.0,77,0.00,,FEW028,0.22,VWS V14.01,2013-08-27 14:35:00,
2013-08-27 10:40:00,82.9,75.3,30.05,NW,315,0.0,4.0,78,0.00,,FEW028,0.22,VWS V14.01,2013-08-27 14:40:00,
2013-08-27 10:45:00,83.5,75.9,30.05,South,169,0.0,4.0,78,0.00,,FEW028,0.22,VWS V14.01,2013-08-27 14:45:00,
2013-08-27 10:50:00,83.9,75.5,30.05,ENE,65,0.0,4.0,76,0.00,,FEW028,0.22,VWS V14.01,2013-08-27 14:50:00,
2013-08-27 10:55:00,83.5,74.8,30.04,ENE,71,0.0,4.0,75,0.00,,FEW028,0.22,VWS V14.01,2013-08-27 14:55:00,
2013-08-27 11:00:00,83.5,74.8,30.04,East,86,0.0,4.0,75,0.00,,FEW028,0.22,VWS V14.01,2013-08-27 15:00:00,
2013-08-27 11:05:00,84.0,74.0,30.04,WSW,238,0.0,1.0,72,0.00,,SCT032,0.22,VWS V14.01,2013-08-27 15:05:00,
2013-08-27 11:10:00,84.5,74.1,30.04,NNE,25,0.0,1.0,71,0.00,,SCT032,0.22,VWS V14.01,2013-08-27 15:10:00,
2013-08-27 11:15:00,84.4,74.0,30.04,ENE,58,0.0,4.0,71,0.00,,SCT032,0.22,VWS V14.01,2013-08-27 15:15:00,
2013-08-27 11:20:00,84.7,74.3,30.04,NNW,338,0.0,4.0,71,0.00,,SCT032,0.22,VWS V14.01,2013-08-27 15:20:00,
2013-08-27 11:25:00,84.3,73.5,30.05,North,360,0.0,4.0,70,0.00,,SCT032,0.22,VWS V14.01,2013-08-27 15:25:00,
2013-08-27 11:30:00,83.9,73.5,30.05,NNW,341,1.0,4.0,71,0.00,,SCT032,0.22,VWS V14.01,2013-08-27 15:30:00,
2013-08-27 11:35:00,84.0,74.4,30.04,North,9,0.0,1.0,73,0.00,,SCT032,0.22,VWS V14.01,2013-08-27 15:35:00,
2013-08-27 11:40:00,85.0,74.6,30.04,East,94,0.0,1.0,71,0.00,,SCT032,0.22,VWS V14.01,2013-08-27 15:40:00,
2013-08-27 11:45:00,86.1,74.3,30.04,West,278,0.0,2.0,68,0.00,,SCT032,0.22,VWS V14.01,2013-08-27 15:45:00,
2013-08-27 11:50:00,87.0,75.6,30.04,WSW,238,0.0,2.0,69,0.00,,SCT032,0.22,VWS V14.01,2013-08-27 15:50:00,
2013-08-27 11:56:00,87.9,74.7,30.04,SW,215,0.0,2.0,65,0.00,,SCT032,0.22,VWS V14.01,2013-08-27 15:56:00,
2013-08-27 12:01:00,88.6,74.9,30.04,SW,231,0.0,0.0,64,0.00,,SCT048,0.22,VWS V14.01,2013-08-27 16:01:00,
2013-08-27 12:06:00,88.9,74.2,30.04,WSW,245,0.0,1.0,62,0.00,,SCT048,0.22,VWS V14.01,2013-08-27 16:06:00,
2013-08-27 12:11:00,89.5,74.3,30.04,SW,231,0.0,1.0,61,0.00,,SCT048,0.22,VWS V14.01,2013-08-27 16:11:00,
2013-08-27 12:16:00,89.3,73.6,30.03,ESE,115,0.0,1.0,60,0.00,,SCT048,0.22,VWS V14.01,2013-08-27 16:16:00,
2013-08-27 12:21:00,88.7,73.0,30.03,WSW,241,0.0,1.0,60,0.00,,SCT048,0.22,VWS V14.01,2013-08-27 16:21:00,
2013-08-27 12:26:00,89.0,73.8,30.03,NNE,30,0.0,1.0,61,0.00,,SCT048,0.22,VWS V14.01,2013-08-27 16:26:00,
2013-08-27 12:31:00,89.5,74.8,30.03,SW,218,0.0,0.0,62,0.00,,SCT048,0.22,VWS V14.01,2013-08-27 16:31:00,
2013-08-27 12:36:00,89.9,73.7,30.03,SW,231,0.0,2.0,59,0.00,,SCT048,0.22,VWS V14.01,2013-08-27 16:36:00,
2013-08-27 12:41:00,90.4,75.1,30.03,NNE,32,0.0,2.0,61,0.00,,SCT048,0.22,VWS V14.01,2013-08-27 16:41:00,
2013-08-27 12:46:00,90.6,73.8,30.03,WSW,238,0.0,2.0,58,0.00,,SCT048,0.22,VWS V14.01,2013-08-27 16:46:00,
2013-08-27 12:51:00,90.5,73.7,30.03,NE,44,0.0,2.0,58,0.00,,SCT048,0.22,VWS V14.01,2013-08-27 16:51:00,
2013-08-27 12:56:00,90.4,74.6,30.03,SE,140,0.0,2.0,60,0.00,,SCT048,0.22,VWS V14.01,2013-08-27 16:56:00,
2013-08-27 13:01:00,90.3,74.0,30.03,NW,306,0.0,0.0,59,0.00,,CLR,0.22,VWS V14.01,2013-08-27 17:01:00,
2013-08-27 13:06:00,89.6,72.9,30.03,West,281,0.0,1.0,58,0.00,,CLR,0.22,VWS V14.01,2013-08-27 17:06:00,
2013-08-27 13:11:00,88.8,74.1,30.03,NNE,27,1.0,2.0,62,0.00,,CLR,0.22,VWS V14.01,2013-08-27 17:11:00,
2013-08-27 13:16:00,88.9,75.6,30.02,NE,50,0.0,2.0,65,0.00,,CLR,0.22,VWS V14.01,2013-08-27 17:16:00,
2013-08-27 13:21:00,89.7,73.5,30.03,WSW,238,0.0,2.0,59,0.00,,CLR,0.22,VWS V14.01,2013-08-27 17:21:00,
2013-08-27 13:26:00,89.8,74.1,30.03,SW,226,0.0,2.0,60,0.00,,CLR,0.22,VWS V14.01,2013-08-27 17:26:00,
2013-08-27 13:31:00,88.6,72.4,30.03,SSE,158,0.0,0.0,59,0.00,,CLR,0.22,VWS V14.01,2013-08-27 17:31:00,
2013-08-27 13:36:00,88.0,73.4,30.02,SSW,207,0.0,0.0,62,0.00,,CLR,0.22,VWS V14.01,2013-08-27 17:36:00,
2013-08-27 13:42:00,88.5,72.3,30.02,NNE,33,0.0,0.0,59,0.00,,CLR,0.22,VWS V14.01,2013-08-27 17:42:00,
2013-08-27 13:47:00,88.2,73.1,30.02,WNW,301,0.0,3.0,61,0.00,,CLR,0.22,VWS V14.01,2013-08-27 17:47:00,
2013-08-27 13:52:00,89.0,74.3,30.02,SSW,195,0.0,3.0,62,0.00,,CLR,0.22,VWS V14.01,2013-08-27 17:52:00,
2013-08-27 13:57:00,89.9,74.2,30.02,NNE,23,0.0,3.0,60,0.00,,CLR,0.22,VWS V14.01,2013-08-27 17:57:00,
2013-08-27 14:02:00,90.3,73.5,30.02,SW,231,0.0,0.0,58,0.00,,SCT049,0.22,VWS V14.01,2013-08-27 18:02:00,
2013-08-27 14:07:00,89.2,72.5,30.02,SW,231,0.0,0.0,58,0.00,,SCT049,0.22,VWS V14.01,2013-08-27 18:07:00,
2013-08-27 14:12:00,88.6,73.4,30.01,SW,221,0.0,1.0,61,0.00,,SCT049,0.22,VWS V14.01,2013-08-27 18:12:00,
2013-08-27 14:17:00,88.4,72.8,30.01,SW,236,0.0,1.0,60,0.00,,SCT049,0.22,VWS V14.01,2013-08-27 18:17:00,
2013-08-27 14:22:00,87.9,72.8,30.01,NW,319,0.0,1.0,61,0.00,,SCT049,0.22,VWS V14.01,2013-08-27 18:22:00,
2013-08-27 14:27:00,88.3,73.2,30.01,NNW,339,0.0,1.0,61,0.00,,SCT049,0.22,VWS V14.01,2013-08-27 18:27:00,
2013-08-27 14:32:00,88.7,73.5,30.01,NE,47,0.0,1.0,61,0.00,,SCT049,0.22,VWS V14.01,2013-08-27 18:32:00,
2013-08-27 14:37:00,88.8,74.1,30.00,SW,229,0.0,1.0,62,0.00,,SCT049,0.22,VWS V14.01,2013-08-27 18:37:00,
2013-08-27 14:42:00,88.9,72.7,30.00,SW,214,0.0,1.0,59,0.00,,SCT049,0.22,VWS V14.01,2013-08-27 18:42:00,
2013-08-27 14:47:00,89.5,74.3,30.00,SW,231,0.0,1.0,61,0.00,,SCT049,0.22,VWS V14.01,2013-08-27 18:47:00,
2013-08-27 14:52:00,89.5,72.8,30.00,WSW,238,0.0,1.0,58,0.00,,SCT049,0.22,VWS V14.01,2013-08-27 18:52:00,
2013-08-27 14:57:00,88.9,72.2,30.00,ENE,78,0.0,2.0,58,0.00,,SCT049,0.22,VWS V14.01,2013-08-27 18:57:00,
2013-08-27 15:02:00,88.9,73.2,30.00,East,81,0.0,1.0,60,0.00,,FEW049,0.22,VWS V14.01,2013-08-27 19:02:00,
2013-08-27 15:07:00,89.6,73.9,29.99,SSW,213,0.0,1.0,60,0.00,,FEW049,0.22,VWS V14.01,2013-08-27 19:07:00,
2013-08-27 15:12:00,90.5,74.2,29.99,SW,221,0.0,1.0,59,0.00,,FEW049,0.22,VWS V14.01,2013-08-27 19:12:00,
2013-08-27 15:17:00,91.1,75.3,29.99,ESE,103,0.0,1.0,60,0.00,,FEW049,0.22,VWS V14.01,2013-08-27 19:17:00,
2013-08-27 15:23:00,90.9,74.6,29.99,North,8,0.0,1.0,59,0.00,,FEW049,0.22,VWS V14.01,2013-08-27 19:23:00,
2013-08-27 15:28:00,90.9,74.6,29.99,ENE,67,0.0,1.0,59,0.00,,FEW049,0.22,VWS V14.01,2013-08-27 19:28:00,
2013-08-27 15:33:00,90.4,72.6,29.99,SSW,207,0.0,0.0,56,0.00,,FEW049,0.22,VWS V14.01,2013-08-27 19:33:00,
2013-08-27 15:38:00,90.5,72.7,29.99,SW,224,1.0,3.0,56,0.00,,FEW049,0.22,VWS V14.01,2013-08-27 19:38:00,
2013-08-27 15:43:00,90.8,73.5,29.99,South,169,1.0,3.0,57,0.00,,FEW049,0.22,VWS V14.01,2013-08-27 19:43:00,
2013-08-27 15:48:00,91.0,74.2,29.99,NE,40,0.0,3.0,58,0.00,,FEW049,0.22,VWS V14.01,2013-08-27 19:48:00,
2013-08-27 15:53:00,90.7,73.4,29.99,ESE,111,0.0,3.0,57,0.00,,FEW049,0.22,VWS V14.01,2013-08-27 19:53:00,
2013-08-27 15:58:00,89.9,73.2,29.99,WSW,248,0.0,3.0,58,0.00,,FEW049,0.22,VWS V14.01,2013-08-27 19:58:00,
2013-08-27 16:03:00,90.0,74.8,29.99,SW,224,0.0,0.0,61,0.00,,FEW048,0.22,VWS V14.01,2013-08-27 20:03:00,
2013-08-27 16:08:00,89.9,72.6,29.99,SW,228,1.0,2.0,57,0.00,,FEW048,0.22,VWS V14.01,2013-08-27 20:08:00,
2013-08-27 16:13:00,90.2,74.4,29.98,SW,224,1.0,3.0,60,0.00,,FEW048,0.22,VWS V14.01,2013-08-27 20:13:00,
2013-08-27 16:18:00,90.7,73.4,29.98,WSW,249,0.0,3.0,57,0.00,,FEW048,0.22,VWS V14.01,2013-08-27 20:18:00,
2013-08-27 16:23:00,90.7,74.4,29.98,WSW,245,0.0,3.0,59,0.00,,FEW048,0.22,VWS V14.01,2013-08-27 20:23:00,
2013-08-27 16:28:00,89.2,72.0,29.98,NNW,338,0.0,3.0,57,0.00,,FEW048,0.22,VWS V14.01,2013-08-27 20:28:00,
2013-08-27 16:33:00,87.9,72.8,29.98,WNW,283,0.0,1.0,61,0.00,,FEW048,0.22,VWS V14.01,2013-08-27 20:33:00,
2013-08-27 16:38:00,88.1,73.4,29.98,WSW,240,0.0,1.0,62,0.00,,FEW048,0.22,VWS V14.01,2013-08-27 20:38:00,
2013-08-27 16:44:00,88.8,73.1,29.98,South,181,0.0,1.0,60,0.00,,FEW048,0.22,VWS V14.01,2013-08-27 20:44:00,
2013-08-27 16:49:00,89.4,73.2,29.98,WSW,245,0.0,1.0,59,0.00,,FEW048,0.22,VWS V14.01,2013-08-27 20:49:00,
2013-08-27 16:54:00,89.7,74.0,29.98,SW,233,0.0,1.0,60,0.00,,FEW048,0.22,VWS V14.01,2013-08-27 20:54:00,
2013-08-27 16:59:00,89.7,74.0,29.98,NE,42,0.0,1.0,60,0.00,,FEW048,0.22,VWS V14.01,2013-08-27 20:59:00,
2013-08-27 17:04:00,89.0,73.3,29.98,North,4,0.0,1.0,60,0.00,,BKN100,0.22,VWS V14.01,2013-08-27 21:04:00,
2013-08-27 17:09:00,88.9,73.7,29.98,SW,226,0.0,1.0,61,0.00,,BKN100,0.22,VWS V14.01,2013-08-27 21:09:00,
2013-08-27 17:14:00,88.4,73.2,29.98,NE,49,0.0,1.0,61,0.00,,BKN100,0.22,VWS V14.01,2013-08-27 21:14:00,
2013-08-27 17:19:00,87.4,73.3,29.99,NW,314,0.0,1.0,63,0.00,,BKN100,0.22,VWS V14.01,2013-08-27 21:19:00,
2013-08-27 17:24:00,86.3,72.7,29.99,West,273,0.0,2.0,64,0.00,,BKN100,0.22,VWS V14.01,2013-08-27 21:24:00,
2013-08-27 17:29:00,85.7,72.1,29.99,SW,232,0.0,2.0,64,0.00,,BKN100,0.22,VWS V14.01,2013-08-27 21:29:00,
2013-08-27 17:35:00,85.3,73.1,29.99,SE,140,0.0,1.0,67,0.00,,BKN100,0.22,VWS V14.01,2013-08-27 21:35:00,
2013-08-27 17:40:00,84.8,72.2,29.99,North,4,0.0,1.0,66,0.00,,BKN100,0.22,VWS V14.01,2013-08-27 21:40:00,
2013-08-27 17:45:00,84.4,71.8,29.99,SW,235,0.0,1.0,66,0.00,,BKN100,0.22,VWS V14.01,2013-08-27 21:45:00,
2013-08-27 17:50:00,84.7,71.2,29.99,SW,232,0.0,2.0,64,0.00,,BKN100,0.22,VWS V14.01,2013-08-27 21:50:00,
2013-08-27 17:55:00,85.4,70.4,29.99,WSW,238,1.0,2.0,61,0.00,,BKN100,0.22,VWS V14.01,2013-08-27 21:55:00,
2013-08-27 18:00:00,85.9,70.4,29.99,SSW,200,0.0,2.0,60,0.00,,BKN100,0.22,VWS V14.01,2013-08-27 22:00:00,
2013-08-27 18:05:00,86.1,70.6,29.99,SSW,205,0.0,1.0,60,0.00,,BKN090,0.22,VWS V14.01,2013-08-27 22:05:00,
2013-08-27 18:10:00,86.0,69.5,29.99,East,91,0.0,1.0,58,0.00,,BKN090,0.22,VWS V14.01,2013-08-27 22:10:00,
2013-08-27 18:15:00,86.3,69.3,29.99,NE,43,0.0,1.0,57,0.00,,BKN090,0.22,VWS V14.01,2013-08-27 22:15:00,
2013-08-27 18:21:00,86.0,70.0,29.99,SW,231,0.0,1.0,59,0.00,,BKN090,0.22,VWS V14.01,2013-08-27 22:21:00,
2013-08-27 18:26:00,85.6,69.6,29.99,WSW,238,0.0,1.0,59,0.00,,BKN090,0.22,VWS V14.01,2013-08-27 22:26:00,
2013-08-27 18:31:00,85.0,68.6,29.99,West,280,0.0,0.0,58,0.00,,BKN090,0.22,VWS V14.01,2013-08-27 22:31:00,
2013-08-27 18:36:00,84.5,69.1,29.99,NNW,345,0.0,1.0,60,0.00,,BKN090,0.22,VWS V14.01,2013-08-27 22:36:00,
2013-08-27 18:41:00,84.1,69.2,29.99,SW,234,0.0,1.0,61,0.00,,BKN090,0.22,VWS V14.01,2013-08-27 22:41:00,
2013-08-27 18:46:00,83.8,69.9,29.99,West,263,0.0,1.0,63,0.00,,BKN090,0.22,VWS V14.01,2013-08-27 22:46:00,
2013-08-27 18:51:00,83.5,70.1,29.99,NW,322,0.0,2.0,64,0.00,,BKN090,0.22,VWS V14.01,2013-08-27 22:51:00,
2013-08-27 18:56:00,83.1,69.7,29.99,NW,314,0.0,2.0,64,0.00,,BKN090,0.22,VWS V14.01,2013-08-27 22:56:00,
2013-08-27 19:01:00,82.9,69.9,29.99,NE,51,0.0,0.0,65,0.00,,CLR,0.22,VWS V14.01,2013-08-27 23:01:00,
2013-08-27 19:07:00,82.6,70.1,29.99,NE,51,0.0,0.0,66,0.00,,CLR,0.22,VWS V14.01,2013-08-27 23:07:00,
2013-08-27 19:12:00,82.4,69.5,29.99,SSE,165,0.0,1.0,65,0.00,,CLR,0.22,VWS V14.01,2013-08-27 23:12:00,
2013-08-27 19:17:00,82.2,69.3,29.99,WSW,242,0.0,1.0,65,0.00,,CLR,0.22,VWS V14.01,2013-08-27 23:17:00,
2013-08-27 19:22:00,82.0,70.0,29.99,SW,225,0.0,1.0,67,0.00,,CLR,0.22,VWS V14.01,2013-08-27 23:22:00,
2013-08-27 19:27:00,81.7,70.1,29.99,SW,228,0.0,1.0,68,0.00,,CLR,0.22,VWS V14.01,2013-08-27 23:27:00,
2013-08-27 19:32:00,81.5,69.9,29.98,SW,233,0.0,0.0,68,0.00,,CLR,0.22,VWS V14.01,2013-08-27 23:32:00,
2013-08-27 19:37:00,81.2,70.1,29.99,WSW,250,0.0,0.0,69,0.00,,CLR,0.22,VWS V14.01,2013-08-27 23:37:00,
2013-08-27 19:42:00,80.8,69.7,29.99,WSW,250,0.0,0.0,69,0.00,,CLR,0.22,VWS V14.01,2013-08-27 23:42:00,
2013-08-27 19:48:00,80.6,70.3,29.98,WSW,248,0.0,1.0,71,0.00,,CLR,0.22,VWS V14.01,2013-08-27 23:48:00,
2013-08-27 19:53:00,80.3,70.1,29.98,WSW,250,0.0,1.0,71,0.00,,CLR,0.22,VWS V14.01,2013-08-27 23:53:00,
2013-08-27 19:58:00,80.1,69.9,29.98,WSW,250,0.0,1.0,71,0.00,,CLR,0.22,VWS V14.01,2013-08-27 23:58:00,
2013-08-27 20:03:00,79.8,70.0,29.99,WSW,250,0.0,0.0,72,0.00,,CLR,0.22,VWS V14.01,2013-08-28 00:03:00,
2013-08-27 20:08:00,79.5,70.5,29.99,WSW,250,0.0,0.0,74,0.00,,CLR,0.22,VWS V14.01,2013-08-28 00:08:00,
2013-08-27 20:13:00,79.2,70.2,29.99,WSW,250,0.0,0.0,74,0.00,,CLR,0.22,VWS V14.01,2013-08-28 00:13:00,
2013-08-27 20:18:00,78.9,69.9,29.99,WSW,251,0.0,0.0,74,0.00,,CLR,0.22,VWS V14.01,2013-08-28 00:18:00,
2013-08-27 20:24:00,78.6,70.0,29.99,WSW,250,0.0,0.0,75,0.00,,CLR,0.22,VWS V14.01,2013-08-28 00:24:00,
2013-08-27 20:29:00,78.3,70.1,29.99,WSW,250,0.0,0.0,76,0.00,,CLR,0.22,VWS V14.01,2013-08-28 00:29:00,
2013-08-27 20:34:00,78.0,69.8,29.99,WSW,250,0.0,0.0,76,0.00,,CLR,0.22,VWS V14.01,2013-08-28 00:34:00,
2013-08-27 20:39:00,77.8,70.0,30.00,WSW,250,0.0,0.0,77,0.00,,CLR,0.22,VWS V14.01,2013-08-28 00:39:00,
2013-08-27 20:44:00,77.6,69.8,30.00,WSW,250,0.0,0.0,77,0.00,,CLR,0.22,VWS V14.01,2013-08-28 00:44:00,
2013-08-27 20:49:00,77.4,69.2,30.00,WSW,250,0.0,0.0,76,0.00,,CLR,0.22,VWS V14.01,2013-08-28 00:49:00,
2013-08-27 20:54:00,77.3,69.5,30.00,WSW,250,0.0,0.0,77,0.00,,CLR,0.22,VWS V14.01,2013-08-28 00:54:00,
2013-08-27 20:59:00,77.1,69.3,30.00,WSW,250,0.0,0.0,77,0.00,,CLR,0.22,VWS V14.01,2013-08-28 00:59:00,
2013-08-27 21:05:00,76.8,69.1,30.00,WSW,250,0.0,0.0,77,0.00,,CLR,0.22,VWS V14.01,2013-08-28 01:05:00,
2013-08-27 21:10:00,76.6,69.2,30.01,WSW,250,0.0,0.0,78,0.00,,CLR,0.22,VWS V14.01,2013-08-28 01:10:00,
2013-08-27 21:15:00,76.4,69.0,30.01,WSW,250,0.0,0.0,78,0.00,,CLR,0.22,VWS V14.01,2013-08-28 01:15:00,
2013-08-27 21:20:00,76.1,69.1,30.01,WSW,250,0.0,0.0,79,0.00,,CLR,0.22,VWS V14.01,2013-08-28 01:20:00,
2013-08-27 21:25:00,75.9,68.9,30.01,WSW,250,0.0,0.0,79,0.00,,CLR,0.22,VWS V14.01,2013-08-28 01:25:00,
2013-08-27 21:30:00,75.7,69.1,30.01,WSW,250,0.0,0.0,80,0.00,,CLR,0.22,VWS V14.01,2013-08-28 01:30:00,
2013-08-27 21:35:00,75.6,69.0,30.02,WSW,250,0.0,0.0,80,0.00,,CLR,0.22,VWS V14.01,2013-08-28 01:35:00,
2013-08-27 21:40:00,75.7,69.5,30.02,WSW,250,0.0,0.0,81,0.00,,CLR,0.22,VWS V14.01,2013-08-28 01:40:00,
2013-08-27 21:46:00,75.6,69.4,30.02,WSW,250,0.0,0.0,81,0.00,,CLR,0.22,VWS V14.01,2013-08-28 01:46:00,
2013-08-27 21:51:00,75.5,69.3,30.02,WSW,250,0.0,0.0,81,0.00,,CLR,0.22,VWS V14.01,2013-08-28 01:51:00,
2013-08-27 21:56:00,75.4,69.2,30.02,WSW,250,0.0,0.0,81,0.00,,CLR,0.22,VWS V14.01,2013-08-28 01:56:00,
2013-08-27 22:01:00,75.1,68.9,30.03,WSW,250,0.0,0.0,81,0.00,,CLR,0.22,VWS V14.01,2013-08-28 02:01:00,
2013-08-27 22:06:00,74.9,69.0,30.02,WSW,250,0.0,0.0,82,0.00,,CLR,0.22,VWS V14.01,2013-08-28 02:06:00,
2013-08-27 22:11:00,74.8,69.3,30.02,WSW,250,0.0,0.0,83,0.00,,CLR,0.22,VWS V14.01,2013-08-28 02:11:00,
2013-08-27 22:16:00,74.6,69.4,30.02,WSW,250,0.0,0.0,84,0.00,,CLR,0.22,VWS V14.01,2013-08-28 02:16:00,
2013-08-27 22:22:00,74.5,69.3,30.02,WSW,250,0.0,0.0,84,0.00,,CLR,0.22,VWS V14.01,2013-08-28 02:22:00,
2013-08-27 22:27:00,74.3,69.5,30.02,WSW,250,0.0,0.0,85,0.00,,CLR,0.22,VWS V14.01,2013-08-28 02:27:00,
2013-08-27 22:32:00,74.1,69.3,30.02,WSW,250,0.0,0.0,85,0.00,,CLR,0.22,VWS V14.01,2013-08-28 02:32:00,
2013-08-27 22:37:00,73.9,69.4,30.02,WSW,250,0.0,0.0,86,0.00,,CLR,0.22,VWS V14.01,2013-08-28 02:37:00,
2013-08-27 22:42:00,73.7,69.3,30.02,WSW,250,0.0,0.0,86,0.00,,CLR,0.22,VWS V14.01,2013-08-28 02:42:00,
2013-08-27 22:47:00,73.6,69.2,30.02,WSW,250,0.0,0.0,86,0.00,,CLR,0.22,VWS V14.01,2013-08-28 02:47:00,
2013-08-27 22:52:00,73.6,69.5,30.02,WSW,250,0.0,0.0,87,0.00,,CLR,0.22,VWS V14.01,2013-08-28 02:52:00,
2013-08-27 22:57:00,73.5,69.4,30.02,WSW,250,0.0,0.0,87,0.00,,CLR,0.22,VWS V14.01,2013-08-28 02:57:00,
2013-08-27 23:03:00,73.5,69.4,30.02,WSW,250,0.0,0.0,87,0.00,,CLR,0.22,VWS V14.01,2013-08-28 03:03:00,
2013-08-27 23:08:00,73.3,69.5,30.02,WSW,250,0.0,0.0,88,0.00,,CLR,0.22,VWS V14.01,2013-08-28 03:08:00,
2013-08-27 23:13:00,73.2,69.4,30.02,WSW,250,0.0,0.0,88,0.00,,CLR,0.22,VWS V14.01,2013-08-28 03:13:00,
2013-08-27 23:18:00,73.2,69.8,30.02,WSW,250,0.0,0.0,89,0.00,,CLR,0.22,VWS V14.01,2013-08-28 03:18:00,
2013-08-27 23:23:00,73.1,69.7,30.02,WSW,250,0.0,0.0,89,0.00,,CLR,0.22,VWS V14.01,2013-08-28 03:23:00,
2013-08-27 23:28:00,73.1,69.7,30.02,WSW,250,0.0,0.0,89,0.00,,CLR,0.22,VWS V14.01,2013-08-28 03:28:00,
2013-08-27 23:33:00,73.1,69.7,30.02,WSW,250,0.0,0.0,89,0.00,,CLR,0.22,VWS V14.01,2013-08-28 03:33:00,
2013-08-27 23:39:00,73.0,69.6,30.01,WSW,250,0.0,0.0,89,0.00,,CLR,0.22,VWS V14.01,2013-08-28 03:39:00,
2013-08-27 23:44:00,72.9,69.8,30.01,WSW,250,0.0,0.0,90,0.00,,CLR,0.22,VWS V14.01,2013-08-28 03:44:00,
2013-08-27 23:49:00,72.9,69.8,30.01,WSW,250,0.0,0.0,90,0.00,,CLR,0.22,VWS V14.01,2013-08-28 03:49:00,
2013-08-27 23:54:00,72.9,69.8,30.01,WSW,250,0.0,0.0,90,0.00,,CLR,0.22,VWS V14.01,2013-08-28 03:54:00,
2013-08-27 23:59:00,72.9,69.8,30.01,WSW,250,0.0,0.0,90,0.00,,CLR,0.22,VWS V14.01,2013-08-28 03:59:00,